Regional Weather Roundup
Issued by NWS

Home | Current Version | Previous Version | Graphics & Text | Print | Product List | Glossary On
Versions: 1 2 3 4 5 6 7 8 9 10 11 12 13 14 15 16 17 18 19 20 21 22 23 24 25 26 27 28 29 30 31 32 33 34 35 36 37 38 39 40 41 42 43 44 45 46 47 48 49 50
000
ASUS45 KABQ 101901
RWRNM
NEW MEXICO REGIONAL WEATHER ROUNDUP
NATIONAL WEATHER SERVICE ALBUQUERQUE NM
1200 PM MST WED FEB 10 2016

NOTE: "FAIR" MEANS FEW OR NO CLOUDS BELOW 12,000 FEET AGL WITH NO
       SIGNIFICANT WEATHER OR OBSTRUCTIONS TO VISION.

      THIS PRODUCT IS RELEASED AS TWO VERSIONS.  ONE VERSION NEAR
      THE TOP OF THE HOUR CONTAINING PRELIMINARY DATA FROM ALBUQUERQUE
      AND OTHER STATIONS.  A FINAL VERSION WITH ADDITIONAL DATA IS
      ISSUED ABOUT 10 MINUTES AFTER THE HOUR.

NMZ501-503-504-510>518-102000-
NORTHWEST PLATEAU/NORTHCENTRAL MOUNTAINS

CITY           SKY/WX    TMP DP  RH WIND       PRES   REMARKS
FARMINGTON     SUNNY     47  24  40 N3        30.43F
SANTA FE       SUNNY     53  19  26 SW7       30.40F
TAOS           SUNNY     45  19  36 CALM      30.43F

$$
NMZ402-403-502-505>509-102000-
WESTCENTRAL MOUNTAINS/SOUTHWEST MOUNTAINS

CITY           SKY/WX    TMP DP  RH WIND       PRES   REMARKS
GALLUP         SUNNY     51  24  34 CALM      30.45F
GRANTS         SUNNY     53  17  24 N5        30.45F
SILVER CITY      N/A     61  14  16 SE8       30.42F

$$
NMZ407-409-411-412-102000-
SOUTHERN DESERTS

CITY           SKY/WX    TMP DP  RH WIND       PRES   REMARKS
DEMING         SUNNY     64  19  17 VRB3      30.38F
ALAMOGORDO     SUNNY     63  19  19 W3        30.38F
T OR C         SUNNY     59  18  20 VRB3      30.38F

$$
NMZ519>523-102000-
CENTRAL VALLEYS/CENTRAL HIGHLANDS

CITY           SKY/WX    TMP DP  RH WIND       PRES   REMARKS
ALBUQUERQUE    SUNNY     53  20  27 CALM      30.42F
DOUBLE EAGLE   SUNNY     54  21  28 SW5       30.43F
MORIARTY ARPT  FAIR      60  14  16 W7        30.40F
CLINES CORNERS SUNNY     51  21  30 NW24      30.37F
BELEN          FAIR      53  19  26 NE5       30.42F
SOCORRO        NOT AVBL

$$
NMZ524>526-539-540-102000-
SOUTHCENTRAL MOUNTAINS

CITY           SKY/WX    TMP DP  RH WIND       PRES   REMARKS
RUIDOSO          N/A     59  16  18 NW12G20   30.41F

$$
NMZ527>531-102000-
NORTHEAST HIGHLANDS/NORTHEAST PLAINS

CITY           SKY/WX    TMP DP  RH WIND       PRES   REMARKS
LAS VEGAS      SUNNY     63  -1   7 VRB3      30.32F
RATON          SUNNY     61  11  14 CALM      30.27F
CLAYTON        SUNNY     74  -1   5 NW10      30.18F

$$
NMZ532>537-102000-
EASTCENTRAL PLAINS

CITY           SKY/WX    TMP DP  RH WIND       PRES   REMARKS
TUCUMCARI        N/A     70  18  13 W10       30.21F
CANNON AFB     NOT AVBL
CLOVIS AIRPORT SUNNY     70  19  14 W20G26    30.26F

$$
NMZ028-029-538-102000-
SOUTHEAST PLAINS

CITY           SKY/WX    TMP DP  RH WIND       PRES   REMARKS
ROSWELL        SUNNY     63  23  21 VRB6      30.29F
ARTESIA        SUNNY     61  27  27 CALM      30.30F
CARLSBAD       SUNNY     62  26  25 VRB3      30.29F
HOBBS          SUNNY     68  18  14 SW14G20   30.31F


$$



USA.gov is the U.S. government's official web portal to all federal, state and local government web resources and services.